Tracking 19817 objects as of 18-Aug-2019
HD Live streaming from Space Station
objects crossing your sky now

FENGYUN 1C DEB

Track FENGYUN 1C DEB now!
10-day predictions


NORAD ID: 31851
Int'l Code: 1999-025CJR
Perigee: 836.4 km
Apogee: 1,168.0 km
Inclination: 98.8 °
Period: 105.0 minutes
Semi major axis: 7373 km
RCS: 0.0112 m2 (small)
Launch date: May 10, 1999
Source: People's Republic of China (PRC)
Launch site: Taiyaun Space Center, China (TSC)

Note: This is SATELLITE DEBRIS
aabbcc
Your satellite tracking list
Your tracking list is empty




NASA's NSSDC Master Catalog

Two Line Element Set (TLE):
1 31851U 99025CJR 19225.22022145  .00000555  00000-0  55522-3 0  9997
2 31851  98.7852 221.8047 0224886 335.0056  24.0336 13.71253953608567
Source of the keplerian elements: AFSPC